North Tumbulgum, Australia

7:17 PM AEST on May 23, 2017 (GMT +1000)
North Tumbulgum

Weather History for 94592 - July, 2013

Change the Weather History Date:

Sunday, July 14, 2013

  Actual Average Record
Temperature  
Mean Temperature 62 °F -  
Max Temperature 69 °F - - ()
Min Temperature 56 °F - - ()
Degree Days  
Heating Degree Days 2    
Growing Degree Days 12 (Base 50)    
Moisture  
Dew Point 54 °F    
Average Humidity 76    
Maximum Humidity 88    
Minimum Humidity 56    
Precipitation  
Precipitation 0.01 in - - ()
Sea Level Pressure  
Sea Level Pressure 30.30 in    
Wind  
Wind Speed 8 mph ()    
Max Wind Speed 18 mph    
Max Gust Speed -    
Visibility 6.2 miles    
Events      
T = Trace of Precipitation, MM = Missing Value Source: Averaged Metar Reports

Daily Weather History Graph

Daily Weather History Graph

Search for Another Location

Airport or City:

Trip Planner

Search our weather history database for the weather conditions in past years. The results will help you decide how hot, cold, wet, or windy it might be!

Date:

Astronomy

Jul. 14, 2013 Rise Set
Actual Time 6:36 AM AEST 5:06 PM AEST
Civil Twilight 6:11 AM AEST 5:32 PM AEST
Nautical Twilight 5:42 AM AEST 6:01 PM AEST
Astronomical Twilight 5:14 AM AEST 6:29 PM AEST
Moon 9:53 AM AEST (7/14) 10:28 PM AEST (7/14)
Length of Visible Light 11h 20m
Length of Day
10h 30m
Waxing Crescent, 29% of the Moon is Illuminated
Jul 14
Waxing Crescent
Jul 16
First Quarter
Jul 23
Full
Jul 30
Last Quarter
Aug 7
New

Hourly Weather History & Observations

Time (AEST) Temp. Dew Point Humidity Pressure Visibility Wind Dir Wind Speed Gust Speed Precip Events Conditions
12:00 AM 60 °F 52 °F 66% 30.32 in - SSW 15.7 mph - -  
12:00 AM 60.8 °F 51.8 °F 72% 30.30 in 6.2 mi SSW 8.1 mph - N/A   Unknown
12:30 AM 59.0 °F 51.8 °F 77% 30.30 in 6.2 mi SSW 8.1 mph - N/A   Unknown
1:00 AM 57.2 °F 51.8 °F 82% 30.30 in 6.2 mi South 8.1 mph - N/A   Scattered Clouds
1:30 AM 57.2 °F 51.8 °F 82% 30.30 in 6.2 mi South 8.1 mph - N/A   Overcast
2:00 AM 59.0 °F 51.8 °F 77% 30.27 in 6.2 mi SSW 9.2 mph - N/A   Scattered Clouds
2:30 AM 59.0 °F 53.6 °F 82% 30.27 in 6.2 mi SSW 8.1 mph - N/A   Scattered Clouds
3:00 AM 59.0 °F 53.6 °F 82% 30.27 in 6.2 mi SSW 8.1 mph - N/A   Overcast
3:30 AM 59.0 °F 53.6 °F 82% 30.27 in 6.2 mi SSW 9.2 mph - N/A   Overcast
4:00 AM 59.0 °F 53.6 °F 82% 30.27 in 6.2 mi SSW 8.1 mph - N/A   Overcast
4:30 AM 59.0 °F 53.6 °F 82% 30.27 in 6.2 mi SSW 6.9 mph - N/A   Scattered Clouds
5:00 AM 59.0 °F 53.6 °F 82% 30.27 in 6.2 mi SSW 5.8 mph - N/A   Overcast
5:30 AM 57.2 °F 51.8 °F 82% 30.27 in 6.2 mi South 5.8 mph - N/A   Mostly Cloudy
6:00 AM 58 °F 53 °F 79% 30.30 in - South 5.8 mph - -   Overcast
6:00 AM 59.0 °F 53.6 °F 82% 30.27 in 6.2 mi South 5.8 mph - N/A   Mostly Cloudy
6:30 AM 59.0 °F 53.6 °F 82% 30.30 in 6.2 mi SSW 6.9 mph - N/A   Mostly Cloudy
7:00 AM 59.0 °F 53.6 °F 82% 30.30 in 6.2 mi SSW 6.9 mph - N/A   Overcast
7:30 AM 60.8 °F 53.6 °F 77% 30.30 in 6.2 mi South 6.9 mph - N/A   Overcast
8:00 AM 60.8 °F 53.6 °F 77% 30.30 in 6.2 mi SSE 5.8 mph - N/A   Overcast
8:30 AM 60.8 °F 53.6 °F 77% 30.33 in 6.2 mi South 6.9 mph - N/A   Overcast
9:00 AM 65 °F 54 °F 59% 30.34 in - SW 9.2 mph - -   Overcast
9:00 AM 64.4 °F 53.6 °F 68% 30.33 in 6.2 mi SSW 9.2 mph - N/A   Mostly Cloudy
9:30 AM 66.2 °F 53.6 °F 64% 30.33 in 6.2 mi SSW 8.1 mph - N/A   Mostly Cloudy
10:00 AM 66.2 °F 55.4 °F 68% 30.33 in 6.2 mi South 6.9 mph - N/A   Mostly Cloudy
10:12 AM 66.2 °F 53.6 °F 64% 30.33 in - South 9.2 mph - N/A   Overcast
10:30 AM 62.6 °F 53.6 °F 72% 30.33 in 6.2 mi South 5.8 mph - N/A   Overcast
10:32 AM 64.4 °F 53.6 °F 68% 30.33 in 6.2 mi South 5.8 mph - N/A   Overcast
11:00 AM 66.2 °F 55.4 °F 68% 30.33 in 6.2 mi South 8.1 mph - N/A   Mostly Cloudy
11:30 AM 66.2 °F 55.4 °F 68% 30.30 in 6.2 mi SSE 6.9 mph - N/A   Mostly Cloudy
12:00 PM 67 °F 55 °F 56% 30.31 in - SSE 17.9 mph - -   Overcast
12:00 PM 66.2 °F 55.4 °F 68% 30.30 in 6.2 mi SSE 9.2 mph - N/A   Overcast
12:30 PM 69.8 °F 57.2 °F 64% 30.27 in 6.2 mi ESE 12.7 mph - N/A   Mostly Cloudy
1:00 PM 66.2 °F 55.4 °F 68% 30.27 in 6.2 mi SE 11.5 mph - N/A   Scattered Clouds
1:30 PM 66.2 °F 55.4 °F 68% 30.27 in 6.2 mi SE 11.5 mph - N/A   Mostly Cloudy
2:00 PM 66.2 °F 53.6 °F 64% 30.27 in 6.2 mi SE 9.2 mph - N/A   Overcast
2:30 PM 66.2 °F 55.4 °F 68% 30.27 in 6.2 mi SE 10.4 mph - N/A   Overcast
3:00 PM 64 °F 56 °F 68% 30.29 in - SE 11.5 mph - -   Overcast
3:00 PM 64.4 °F 55.4 °F 73% 30.27 in 6.2 mi SE 11.5 mph - N/A   Overcast
3:30 PM 64.4 °F 55.4 °F 73% 30.27 in 6.2 mi SE 10.4 mph - N/A   Overcast
4:00 PM 62.6 °F 55.4 °F 77% 30.27 in 6.2 mi SSE 6.9 mph - N/A   Mostly Cloudy
4:30 PM 62.6 °F 55.4 °F 77% 30.27 in 6.2 mi SSW 5.8 mph - N/A   Overcast
5:00 PM 60.8 °F 55.4 °F 82% 30.27 in 6.2 mi WSW 5.8 mph - N/A   Overcast
5:30 PM 60.8 °F 55.4 °F 82% 30.30 in 6.2 mi WSW 5.8 mph - N/A   Overcast
6:00 PM 60 °F 56 °F 82% 30.31 in - SW 13.4 mph - -   Overcast
6:00 PM 60.8 °F 55.4 °F 82% 30.30 in 6.2 mi SW 6.9 mph - N/A   Overcast
6:30 PM 60.8 °F 57.2 °F 88% 30.30 in 6.2 mi SW 5.8 mph - N/A   Overcast
7:00 PM 60.8 °F 55.4 °F 82% 30.30 in 6.2 mi SSW 4.6 mph - N/A   Overcast
7:30 PM 60.8 °F 55.4 °F 82% 30.30 in 6.2 mi SSW 4.6 mph - N/A   Overcast
8:00 PM 60.8 °F 55.4 °F 82% 30.30 in 6.2 mi SSW 6.9 mph - N/A   Overcast
8:30 PM 60.8 °F 55.4 °F 82% 30.30 in 6.2 mi SSW 6.9 mph - N/A   Overcast
9:00 PM 61 °F 55 °F 75% 30.33 in - SSW 11.2 mph - -   Overcast
9:00 PM 60.8 °F 55.4 °F 82% 30.33 in 6.2 mi SSW 5.8 mph - N/A   Overcast
9:30 PM 60.8 °F 55.4 °F 82% 30.30 in 6.2 mi SW 5.8 mph - N/A   Overcast
10:00 PM 60.8 °F 55.4 °F 82% 30.30 in 6.2 mi SSW 4.6 mph - N/A   Overcast
10:30 PM 59.0 °F 55.4 °F 88% 30.30 in 6.2 mi SW 5.8 mph - N/A   Overcast
11:00 PM 59.0 °F 55.4 °F 88% 30.30 in 6.2 mi SW 4.6 mph - N/A   Overcast
11:30 PM 57.2 °F 53.6 °F 88% 30.30 in 6.2 mi South 3.5 mph - N/A   Scattered Clouds